Weather History for Erie, PA

Change the Weather History Date:

Wednesday, March 20, 2013

  Actual Average Record
Temperature  
Mean Temperature 27 °F 37 °F  
Max Temperature 30 °F 45 °F 77 °F (2012)
Min Temperature 24 °F 29 °F 3 °F (1885)
Degree Days  
Heating Degree Days 38 28  
Month to date heating degree days 658 627  
Since 1 July heating degree days 4752 4992  
Cooling Degree Days 0 0  
Month to date cooling degree days 0 0  
Year to date cooling degree days 0 0  
Moisture  
Dew Point 19 °F    
Average Humidity 74    
Maximum Humidity 84    
Minimum Humidity 63    
Precipitation  
Precipitation 0.12 in 0.10 in 0.77 in (1927)
Month to date precipitation 1.67 1.82  
Year to date precipitation 8.18 7.16  
Snow  
Snow 1.90 in 0.40 in - ()
Month to date snowfall 14.8 10.0  
Since 1 July snowfall 94.1 94.0  
Snow Depth 1.00 in    
Sea Level Pressure  
Sea Level Pressure 29.89 in    
Wind  
Wind Speed 12 mph (West)    
Max Wind Speed 22 mph    
Max Gust Speed 31 mph    
Visibility 6 miles    
Events Fog , Snow    
T = Trace of Precipitation, MM = Missing Value Source: NWS Daily Summary

Daily Weather History Graph

Daily Weather History Graph

Search for Another Location

Airport:

Trip Planner

Search our weather history database for the weather conditions in past years. The results will help you decide how hot, cold, wet, or windy it might be!

Date:

Astronomy

Mar. 20, 2013 Rise Set
Actual Time 7:23 AM EDT 7:33 PM EDT
Civil Twilight 6:55 AM EDT 8:01 PM EDT
Nautical Twilight 6:23 AM EDT 8:33 PM EDT
Astronomical Twilight 5:49 AM EDT 9:07 PM EDT
Moon 1:01 PM EDT (3/20) 3:07 AM EDT (3/20)
Length of Visible Light 13h 05m
Length of Day
12h 09m
First Quarter, 59% of the Moon is Illuminated
Mar 20
First Quarter
Mar 27
Full
Apr 3
Last Quarter
Apr 10
New
Apr 18
First Quarter

Hourly Weather History & Observations

Time (EDT) Temp. Windchill Dew Point Humidity Pressure Visibility Wind Dir Wind Speed Gust Speed Precip Events Conditions
12:04 AM 28.4 °F 15.4 °F 19.4 °F 69% 29.90 in 5.0 mi West 19.6 mph 29.9 mph 0.00 in Snow Light Snow
12:39 AM 26.6 °F 13.4 °F 19.4 °F 74% 29.90 in 2.5 mi West 18.4 mph 28.8 mph 0.00 in Snow Light Snow
12:51 AM 28.0 °F 16.5 °F 19.0 °F 69% 29.92 in 5.0 mi West 15.0 mph 27.6 mph 0.00 in Snow Light Snow
1:07 AM 28.4 °F 16.6 °F 19.4 °F 69% 29.90 in 5.0 mi West 16.1 mph 29.9 mph 0.00 in Snow Light Snow
1:15 AM 28.4 °F 15.8 °F 17.6 °F 64% 29.89 in 6.0 mi West 18.4 mph 28.8 mph 0.00 in Snow Light Snow
1:51 AM 28.0 °F 16.5 °F 18.0 °F 66% 29.93 in 6.0 mi West 15.0 mph 29.9 mph 0.00 in   Overcast
2:51 AM 28.0 °F 17.5 °F 19.0 °F 69% 29.93 in 8.0 mi West 12.7 mph 26.5 mph 0.00 in Snow Light Snow
3:01 AM 28.4 °F 18.0 °F 17.6 °F 64% 29.90 in 10.0 mi West 12.7 mph - 0.00 in   Overcast
3:12 AM 28.4 °F 16.2 °F 15.8 °F 59% 29.90 in 10.0 mi West 17.3 mph 27.6 mph 0.00 in   Overcast
3:51 AM 28.0 °F 16.5 °F 16.0 °F 61% 29.92 in 10.0 mi West 15.0 mph 23.0 mph 0.00 in   Overcast
4:51 AM 28.0 °F 18.1 °F 17.1 °F 63% 29.92 in 10.0 mi West 11.5 mph 23.0 mph N/A   Overcast
5:20 AM 28.4 °F 18.0 °F 17.6 °F 64% 29.89 in 7.0 mi West 12.7 mph 24.2 mph 0.00 in Snow Light Snow
5:29 AM 28.4 °F 18.0 °F 17.6 °F 64% 29.88 in 8.0 mi West 12.7 mph 21.9 mph 0.00 in Snow Light Snow
5:51 AM 28.0 °F 18.1 °F 17.1 °F 63% 29.92 in 10.0 mi West 11.5 mph - 0.00 in   Overcast
6:01 AM 26.6 °F 15.2 °F 17.6 °F 69% 29.89 in 4.0 mi West 13.8 mph 21.9 mph 0.00 in Snow Light Snow
6:09 AM 28.4 °F 17.5 °F 17.6 °F 64% 29.89 in 7.0 mi West 13.8 mph 25.3 mph 0.00 in Snow Light Snow
6:51 AM 28.0 °F 18.1 °F 17.1 °F 63% 29.92 in 10.0 mi West 11.5 mph 20.7 mph 0.00 in   Overcast
7:48 AM 28.4 °F 19.1 °F 17.6 °F 64% 29.88 in 10.0 mi WSW 10.4 mph 19.6 mph 0.00 in   Overcast
7:51 AM 28.0 °F 18.6 °F 17.1 °F 63% 29.91 in 10.0 mi WSW 10.4 mph 19.6 mph 0.00 in   Overcast
8:00 AM 28.4 °F 18.0 °F 17.6 °F 64% 29.88 in 10.0 mi WSW 12.7 mph - N/A   Overcast
8:30 AM 28.4 °F 18.5 °F 17.6 °F 64% 29.87 in 10.0 mi West 11.5 mph - N/A   Overcast
8:51 AM 28.0 °F 20.8 °F 18.0 °F 66% 29.91 in 10.0 mi WSW 6.9 mph - N/A   Overcast
9:09 AM 28.4 °F 21.2 °F 17.6 °F 64% 29.88 in 10.0 mi WSW 6.9 mph - N/A   Overcast
9:18 AM 28.4 °F 18.0 °F 17.6 °F 64% 29.88 in 10.0 mi WSW 12.7 mph 20.7 mph N/A   Overcast
9:51 AM 27.0 °F 15.2 °F 19.0 °F 72% 29.91 in 2.0 mi WSW 15.0 mph 23.0 mph 0.00 in Snow Light Snow
10:01 AM 26.6 °F 15.7 °F 21.2 °F 80% 29.88 in 1.2 mi WSW 12.7 mph 18.4 mph 0.00 in Snow Light Snow
10:12 AM 26.6 °F 16.2 °F 21.2 °F 80% 29.88 in 0.8 mi WSW 11.5 mph 21.9 mph 0.00 in Snow Light Snow
10:21 AM 26.6 °F 16.2 °F 21.2 °F 80% 29.88 in 1.0 mi West 11.5 mph 19.6 mph 0.00 in Snow Light Snow
10:44 AM 26.6 °F 16.2 °F 21.2 °F 80% 29.88 in 1.0 mi West 11.5 mph 18.4 mph 0.01 in Snow Light Snow
10:51 AM 26.6 °F 15.7 °F 23.0 °F 86% 29.87 in 1.0 mi West 12.7 mph 19.6 mph N/A Snow Light Snow
10:55 AM 26.6 °F 16.2 °F 23.0 °F 86% 29.87 in 0.2 mi West 11.5 mph 19.6 mph 0.00 in Fog , Snow Snow
11:09 AM 26.6 °F 17.5 °F 23.0 °F 86% 29.87 in 0.8 mi West 9.2 mph - 0.01 in Snow Light Snow
11:13 AM 26.6 °F 16.8 °F 23.0 °F 86% 29.87 in 0.5 mi West 10.4 mph 16.1 mph 0.01 in Fog , Snow Light Snow
11:16 AM 26.6 °F 17.5 °F 23.0 °F 86% 29.88 in 0.8 mi West 9.2 mph 16.1 mph 0.01 in Snow Light Snow
11:25 AM 26.6 °F 19.1 °F 24.8 °F 93% 29.87 in 1.0 mi West 6.9 mph - 0.01 in Snow Light Snow
11:36 AM 26.6 °F 18.2 °F 23.0 °F 86% 29.87 in 0.8 mi West 8.1 mph 16.1 mph 0.01 in Snow Light Snow
11:43 AM 26.6 °F 15.7 °F 23.0 °F 86% 29.88 in 0.5 mi West 12.7 mph - 0.02 in Fog , Snow Snow
11:51 AM 26.1 °F 14.5 °F 23.0 °F 88% 29.91 in 0.2 mi West 13.8 mph 18.4 mph 0.02 in Fog , Snow Heavy Snow
12:15 PM 26.6 °F 15.2 °F 23.0 °F 86% 29.87 in 1.0 mi West 13.8 mph 20.7 mph 0.03 in Snow Light Snow
12:19 PM 26.6 °F 16.2 °F 21.2 °F 80% 29.88 in 3.0 mi West 11.5 mph 21.9 mph 0.03 in Snow Light Snow
12:23 PM 28.4 °F 18.5 °F 21.2 °F 74% 29.88 in 7.0 mi West 11.5 mph 21.9 mph 0.03 in Snow Light Snow
12:30 PM 28.4 °F 17.5 °F 21.2 °F 74% 29.88 in 7.0 mi West 13.8 mph 19.6 mph 0.03 in Snow Light Snow
12:42 PM 26.6 °F 15.7 °F 21.2 °F 80% 29.88 in 1.8 mi West 12.7 mph 20.7 mph 0.03 in Snow Light Snow
12:45 PM 26.6 °F 15.7 °F 21.2 °F 80% 29.88 in 2.0 mi West 12.7 mph 20.7 mph 0.03 in Snow Light Snow
12:48 PM 28.4 °F 17.5 °F 21.2 °F 74% 29.87 in 3.0 mi West 13.8 mph 19.6 mph 0.03 in Snow Light Snow
12:51 PM 28.0 °F 17.0 °F 21.0 °F 75% 29.91 in 6.0 mi West 13.8 mph 18.4 mph 0.03 in Snow Light Snow
1:11 PM 26.6 °F 14.3 °F 19.4 °F 74% 29.88 in 1.8 mi West 16.1 mph 23.0 mph 0.00 in Snow Light Snow
1:19 PM 26.6 °F 14.3 °F 19.4 °F 74% 29.88 in 3.0 mi West 16.1 mph 23.0 mph 0.00 in Snow Light Snow
1:51 PM 27.0 °F 16.1 °F 19.9 °F 75% 29.91 in 2.0 mi West 12.7 mph 20.7 mph 0.00 in Snow Light Snow
2:06 PM 26.6 °F 14.7 °F 19.4 °F 74% 29.87 in 4.0 mi West 15.0 mph 23.0 mph 0.00 in Snow Light Snow
2:51 PM 27.0 °F 15.6 °F 19.0 °F 72% 29.90 in 7.0 mi West 13.8 mph 21.9 mph 0.00 in Snow Light Snow
3:12 PM 28.4 °F 16.6 °F 17.6 °F 64% 29.86 in 10.0 mi West 16.1 mph 27.6 mph 0.00 in   Overcast
3:51 PM 28.0 °F 16.5 °F 18.0 °F 66% 29.89 in 10.0 mi West 15.0 mph 21.9 mph 0.00 in   Mostly Cloudy
4:51 PM 28.0 °F 16.5 °F 18.0 °F 66% 29.90 in 10.0 mi West 15.0 mph 20.7 mph N/A   Mostly Cloudy
5:51 PM 28.0 °F 17.0 °F 17.1 °F 63% 29.90 in 10.0 mi West 13.8 mph 20.7 mph N/A   Overcast
6:51 PM 28.4 °F 18.0 °F 17.6 °F 64% 29.87 in 10.0 mi West 12.7 mph 21.9 mph N/A   Overcast
7:51 PM 27.0 °F 18.0 °F 16.0 °F 63% 29.89 in 10.0 mi West 9.2 mph - N/A   Mostly Cloudy
8:51 PM 26.1 °F 16.8 °F 19.9 °F 78% 29.90 in 10.0 mi NW 9.2 mph - 0.00 in   Overcast
9:51 PM 26.1 °F 17.6 °F 18.0 °F 71% 29.89 in 10.0 mi West 8.1 mph 17.3 mph N/A   Mostly Cloudy
10:51 PM 26.1 °F 15.6 °F 18.0 °F 71% 29.89 in 10.0 mi West 11.5 mph - N/A   Scattered Clouds
11:32 PM 26.6 °F 15.2 °F 17.6 °F 69% 29.85 in 6.0 mi West 13.8 mph 20.7 mph 0.00 in Snow Light Snow
11:47 PM 24.8 °F 16.1 °F 17.6 °F 74% 29.85 in 8.0 mi West 8.1 mph - 0.00 in Snow Light Snow
11:51 PM 25.0 °F 14.8 °F 17.1 °F 72% 29.88 in 9.0 mi West 10.4 mph - 0.00 in   Mostly Cloudy